{"data":{"norad_id":46913,"intl_designator":"2020-081J","name":"R2","alt_names":[],"object_type":"PAYLOAD","status":"ACTIVE","operator":null,"country":"LTU","launch_date":"2020-11-07","launch_site_code":"SRILR","launch_vehicle":null,"mission":null,"orbit_class":"UNKNOWN","rcs_meters":null,"size_class":null,"mass_kg":null,"dimensions":null,"purposes":[],"wikipedia_slug":null,"has_3d_model":false,"image_url":null,"decayed_at":null,"tle_current":{"epoch":"2026-05-25T03:24:07.887744Z","epoch_age_seconds":59862,"freshness":"FRESH","line1":"1 46913U 20081J   26145.14175796  .00006748  00000+0  26728-3 0  9994","line2":"2 46913  36.8966 203.2604 0006050  90.1248 270.0194 15.25057253308464","mean_motion":15.25057253,"eccentricity":0.000605,"inclination_deg":36.8966,"raan_deg":203.2604,"arg_perigee_deg":90.1248,"mean_anomaly_deg":270.0194,"bstar":0.00026728,"rev_number":30846,"period_min":94.422684601992,"perigee_km":486.45792532848,"apogee_km":494.76911345694,"semimajor_km":6868.7505193927,"source":"CELESTRAK","updated_at":"2026-05-25T13:37:56.390588Z"}}}